{"data":{"norad_id":59171,"epoch":"2026-05-24T22:30:56.039040Z","epoch_age_seconds":73638,"freshness":"FRESH","line1":"1 59171U 24044V   26144.93814860  .00002453  00000+0  98665-4 0  9994","line2":"2 59171  43.0075  36.6849 0001479 255.2689 104.7999 15.27569352125257","mean_motion":15.27569352,"eccentricity":0.0001479,"inclination_deg":43.0075,"raan_deg":36.6849,"arg_perigee_deg":255.2689,"mean_anomaly_deg":104.7999,"bstar":9.8665e-5,"rev_number":12525,"period_min":94.267405804827,"perigee_km":482.06620602819,"apogee_km":484.09575430672,"semimajor_km":6861.2179801675,"source":"CELESTRAK","updated_at":"2026-05-25T13:38:18.836580Z"}}